Flag for USA Past Weather in Bryan – College Station, Texas, USA — Yesterday and Last 2 Weeks

Now
79 °F

Sunny.


Feels Like: 82 °F
Forecast: 72 / 87 °F
Wind: 9 mph from East

Location: Easterwood Field

Current Time: Aug 26, 2016 at 8:24:51 PM

Latest Report: Aug 26, 2016 at 7:53 PM


Visibility: 10 mi

Pressure: 29.98 "Hg

Humidity: 82%

Dew Point: 73 °F

Location of Bryan – College StationLocation

Past Weather in Bryan – College Station — Graph

°F

Bryan – College Station Temperature Yesterday

Maximum temperature yesterday: 92 °F (at 3:53 PM)
Minimum temperature yesterday: 76 °F (at 5:53 AM)
Average temperature yesterday: 83 °F

High & Low Weather Summary for the Past Weeks

 TemperatureHumidityPressure
High101 °F (Aug 12, 4:53 PM)100% (Aug 13, 7:53 PM)30.15 "Hg (Aug 13, 7:53 PM)
Low71 °F (Aug 14, 10:53 PM)35% (Aug 12, 2:53 PM)29.69 "Hg (Aug 12, 5:53 PM)
Average80 °F85%29.97 "Hg
* Reported Aug 11 6:53 PM — Aug 26 6:53 PM, Bryan – College Station, Weather by CustomWeather, © 2016

Note: Actual official high and low records may vary slightly from our data, if they occured in-between our weather recording intervals... More about our weather records

Advertising

Bryan – College Station Weather History for the Previous 24 Hours

Scroll right to see more
 ConditionsComfort  
Time TempWeatherWind HumidityBarometerVisibility
6:53 PM
Fri, Aug 26
81 °FSunny.10 mph74%29.96 "Hg10 mi
5:53 PM83 °FSunny.8 mph68%29.95 "Hg10 mi
4:53 PM82 °FPassing clouds.9 mph74%29.96 "Hg10 mi
3:53 PM82 °FThundershowers. Scattered clouds.10 mph74%29.97 "Hg10 mi
2:53 PM85 °FPartly sunny.14 mph70%29.97 "Hg10 mi
1:53 PM88 °FScattered clouds.5 mph65%29.97 "Hg10 mi
12:53 PM88 °FScattered clouds.6 mph65%30.01 "Hg10 mi
11:53 AM83 °FPartly sunny.3 mph79%30.04 "Hg10 mi
10:53 AM80 °FSunny.3 mph85%30.06 "Hg10 mi
9:53 AM79 °FScattered clouds.5 mph88%30.05 "Hg10 mi
8:53 AM77 °FSunny.3 mph94%30.03 "Hg9 mi
7:53 AM74 °FClear.3 mph97%30.03 "Hg9 mi
6:53 AM74 °FClear.No wind97%30.01 "Hg10 mi
5:53 AM74 °FClear.No wind97%30.01 "Hg10 mi
4:53 AM75 °FClear.6 mph90%30.01 "Hg10 mi
3:53 AM76 °FClear.3 mph91%30.00 "Hg10 mi
2:53 AM77 °FPassing clouds.3 mph88%30.02 "Hg10 mi
1:53 AM77 °FClear.3 mph88%30.04 "Hg10 mi
12:53 AM79 °FClear.6 mph84%30.05 "Hg10 mi
11:53 PM
Thu, Aug 25
80 °FClear.No wind87%30.04 "Hg10 mi
10:53 PM80 °FPassing clouds.5 mph85%30.03 "Hg10 mi
9:53 PM81 °FClear.5 mph85%30.01 "Hg10 mi
8:53 PM82 °FSunny.5 mph79%30.00 "Hg10 mi
Weather by CustomWeather, © 2016

See weather overviewHow to use our weather pages